Bloomington, IN

10:43 AM EDT on August 17, 2017 (GMT -0400)
Monroe County

Weather History for KBMG - March, 2013

Change the Weather History Date:

Tuesday, March 19, 2013

  Actual Average Record
Temperature  
Mean Temperature 35 °F 44 °F  
Max Temperature 43 °F 56 °F 84 °F (2012)
Min Temperature 27 °F 33 °F 24 °F (2006)
Degree Days  
Heating Degree Days 30 21  
Month to date heating degree days 535 464  
Since 1 July heating degree days 4491 4532  
Cooling Degree Days 0 0  
Month to date cooling degree days 0 0  
Year to date cooling degree days 0 0  
Moisture  
Dew Point 19 °F    
Average Humidity 59    
Maximum Humidity 82    
Minimum Humidity 36    
Precipitation  
Precipitation 0.00 in 0.14 in 1.07 in (2008)
Month to date precipitation 1.83 2.01  
Year to date precipitation 9.84 8.08  
Sea Level Pressure  
Sea Level Pressure 30.06 in    
Wind  
Wind Speed 12 mph (West)    
Max Wind Speed 26 mph    
Max Gust Speed 38 mph    
Visibility 10 miles    
Events      
T = Trace of Precipitation, MM = Missing Value Source: NWS Daily Summary

Daily Weather History Graph

Daily Weather History Graph

Search for Another Location

Airport or City:

Trip Planner

Search our weather history database for the weather conditions in past years. The results will help you decide how hot, cold, wet, or windy it might be!

Date:

Astronomy

Mar. 19, 2013 Rise Set
Actual Time 7:51 AM EDT 7:57 PM EDT
Civil Twilight 7:24 AM EDT 8:24 PM EDT
Nautical Twilight 6:53 AM EDT 8:55 PM EDT
Astronomical Twilight 6:21 AM EDT 9:27 PM EDT
Moon 12:43 PM EDT (3/19) 2:41 AM EDT (3/19)
Length of Visible Light 12h 59m
Length of Day
12h 06m
Waxing Crescent, 49% of the Moon is Illuminated
Mar 19
Waxing Crescent
Mar 19
First Quarter
Mar 27
Full
Apr 3
Last Quarter
Apr 10
New

Hourly Weather History & Observations

Time (EDT) Temp. Windchill Dew Point Humidity Pressure Visibility Wind Dir Wind Speed Gust Speed Precip Events Conditions
12:53 AM 37.0 °F 29.8 °F 32.0 °F 82% 29.88 in 10.0 mi WNW 10.4 mph - N/A   Partly Cloudy
1:53 AM 34.0 °F 25.0 °F 24.1 °F 67% 29.91 in 10.0 mi WNW 12.7 mph 23.0 mph N/A   Partly Cloudy
2:53 AM 30.9 °F 20.7 °F 21.9 °F 69% 29.95 in 10.0 mi WNW 13.8 mph 21.9 mph N/A   Partly Cloudy
3:53 AM 28.9 °F 17.3 °F 18.0 °F 64% 29.97 in 10.0 mi West 16.1 mph 26.5 mph N/A   Partly Cloudy
4:53 AM 28.0 °F 20.8 °F 18.0 °F 66% 29.97 in 10.0 mi West 6.9 mph - N/A   Clear
5:53 AM 27.0 °F 17.3 °F 17.1 °F 66% 29.99 in 10.0 mi West 10.4 mph 18.4 mph N/A   Clear
6:53 AM 27.0 °F 20.5 °F 18.0 °F 69% 29.99 in 10.0 mi West 5.8 mph - N/A   Clear
7:53 AM 27.0 °F 18.0 °F 18.0 °F 69% 30.01 in 10.0 mi West 9.2 mph - N/A   Clear
8:53 AM 28.0 °F 17.0 °F 18.0 °F 66% 30.02 in 10.0 mi West 13.8 mph 19.6 mph N/A   Clear
9:53 AM 30.0 °F 19.1 °F 17.1 °F 59% 30.03 in 10.0 mi West 15.0 mph - N/A   Clear
10:53 AM 32.0 °F 19.8 °F 17.1 °F 54% 30.05 in 10.0 mi West 20.7 mph 26.5 mph N/A   Unknown
11:53 AM 33.1 °F 23.0 °F 17.1 °F 52% 30.08 in 10.0 mi West 15.0 mph 27.6 mph N/A   Clear
12:53 PM 36.0 °F 25.6 °F 19.9 °F 52% 30.10 in 10.0 mi West 18.4 mph 26.5 mph N/A   Clear
1:53 PM 37.0 °F 25.6 °F 17.1 °F 44% 30.12 in 10.0 mi West 24.2 mph 32.2 mph N/A   Clear
2:53 PM 39.9 °F 30.5 °F 18.0 °F 41% 30.12 in 10.0 mi West 19.6 mph 27.6 mph N/A   Clear
3:53 PM 41.0 °F 32.5 °F 18.0 °F 40% 30.12 in 10.0 mi West 17.3 mph 27.6 mph N/A   Clear
4:53 PM 42.1 °F 35.2 °F 18.0 °F 38% 30.12 in 10.0 mi West 12.7 mph 24.2 mph N/A   Clear
5:53 PM 42.1 °F 35.2 °F 17.1 °F 37% 30.13 in 10.0 mi West 12.7 mph 20.7 mph N/A   Clear
6:53 PM 39.9 °F 33.4 °F 17.1 °F 40% 30.14 in 10.0 mi West 10.4 mph - N/A   Clear
8:53 PM 37.0 °F 31.0 °F 18.0 °F 46% 30.15 in 10.0 mi West 8.1 mph - N/A   Clear
9:53 PM 36.0 °F 30.3 °F 19.0 °F 50% 30.16 in 10.0 mi West 6.9 mph - N/A   Clear
10:53 PM 35.1 °F 30.1 °F 18.0 °F 50% 30.15 in 10.0 mi West 5.8 mph - N/A   Clear
11:53 PM 34.0 °F 28.8 °F 18.0 °F 52% 30.15 in 10.0 mi West 5.8 mph - N/A   Clear